This is the latest recevied weather packets stored in our database for station/object ON7SD-5. If no packets are shown the sender has not sent any weather packets the latest 10 day(s).
| Time | Temp. | Humidity | Pressure | Rain* | Wind** | Luminosity | Snow |
|---|---|---|---|---|---|---|---|
| 1777455139 | 16.67° C | 38% | 1021.5 hPa | 0 mm | - | 677 W/m² | - |
| 1777454839 | 16.67° C | 38% | 1021.6 hPa | 0 mm | - | 657 W/m² | - |
| 1777454539 | 16.67° C | 39% | 1021.6 hPa | 0 mm | - | 603 W/m² | - |
| 1777454239 | 16.11° C | 39% | 1021.5 hPa | 0 mm | - | 573 W/m² | - |
| 1777453939 | 15.56° C | 39% | 1021.6 hPa | 0 mm | - | 534 W/m² | - |
| 1777453639 | 15.56° C | 39% | 1021.5 hPa | 0 mm | - | 487 W/m² | - |
| 1777453339 | 16.11° C | 39% | 1021.5 hPa | 0 mm | - | 462 W/m² | - |
| 1777453039 | 15.56° C | 40% | 1021.6 hPa | 0 mm | - | 464 W/m² | - |
| 1777452739 | 15.56° C | 40% | 1021.6 hPa | 0 mm | - | 441 W/m² | - |
| 1777452439 | 15.56° C | 40% | 1021.6 hPa | 0 mm | - | 446 W/m² | - |
| 1777452139 | 15° C | 40% | 1021.7 hPa | 0 mm | - | 468 W/m² | - |
| 1777451839 | 15.56° C | 40% | 1021.7 hPa | 0 mm | - | 483 W/m² | - |
| 1777451539 | 15° C | 40% | 1021.8 hPa | 0 mm | - | 482 W/m² | - |
| 1777451239 | 15° C | 41% | 1021.8 hPa | 0 mm | - | 424 W/m² | - |
| 1777450939 | 14.44° C | 42% | 1021.9 hPa | 0 mm | - | 387 W/m² | - |
| 1777450639 | 14.44° C | 41% | 1021.8 hPa | 0 mm | - | 394 W/m² | - |
| 1777450339 | 14.44° C | 42% | 1021.9 hPa | 0 mm | - | 394 W/m² | - |
| 1777450039 | 14.44° C | 42% | 1021.8 hPa | 0 mm | - | 388 W/m² | - |
| 1777449739 | 14.44° C | 41% | 1021.8 hPa | 0 mm | - | 390 W/m² | - |
| 1777449440 | 13.89° C | 43% | 1021.8 hPa | 0 mm | - | 408 W/m² | - |
| 1777449139 | 13.89° C | 43% | 1021.9 hPa | 0 mm | - | 424 W/m² | - |
| 1777448540 | 13.89° C | 43% | 1021.8 hPa | 0 mm | - | 434 W/m² | - |
| 1777448240 | 13.89° C | 43% | 1021.8 hPa | 0 mm | - | 422 W/m² | - |
| 1777447939 | 13.89° C | 44% | 1021.7 hPa | 0 mm | - | 406 W/m² | - |
| 1777447640 | 13.33° C | 45% | 1021.6 hPa | 0 mm | - | 394 W/m² | - |
* Rain latest hour (hover to see other rain measurements)
** Current wind speed in m/s (hover to see current wind gust speed)